New Roads False River Regiona, LA

7:15 AM CST on November 13, 2019 (GMT -0600)
False River

Weather History for KHZR - October, 2019

Change the Weather History Date:

Sunday, October 13, 2019

  Actual Average (KBTR) Record (KBTR)
Temperature  
Mean Temperature 66 °F -  
Max Temperature 77 °F 80 °F 94 °F (1916)
Min Temperature 55 °F 57 °F 41 °F (1906)
Cooling Degree Days 1    
Growing Degree Days 16 (Base 50)    
Moisture  
Dew Point 56 °F    
Average Humidity 72    
Maximum Humidity 94    
Minimum Humidity 50    
Precipitation  
Precipitation 0.00 in - - ()
Sea Level Pressure  
Sea Level Pressure 30.05 in    
Wind  
Wind Speed 3 mph ()    
Max Wind Speed 10 mph    
Max Gust Speed -    
Visibility 10.0 miles    
Events      
Averages and records for this station are not official NWS values.
T = Trace of Precipitation, MM = Missing Value Source: Averaged Metar Reports

Daily Weather History Graph

Daily Weather History Graph

Search for Another Location

Airport or City:

Astronomy

Oct. 13, 2019 Rise Set
Actual Time 7:06 AM CDT 6:36 PM CDT
Civil Twilight 6:42 AM CDT 7:01 PM CDT
Nautical Twilight 6:14 AM CDT 7:29 PM CDT
Astronomical Twilight 5:46 AM CDT 7:57 PM CDT
Moon 6:55 PM CDT 6:47 AM CDT
Length of Visible Light 12h 18m
Length of Day
11h 30m
Full, 100% of the Moon is Illuminated
Oct 13
Full
Oct 13
Full
Oct 21
Last Quarter
Oct 27
New
Nov 4
First Quarter

Hourly Weather History & Observations

Time (CDT) Temp. Dew Point Humidity Pressure Visibility Wind Dir Wind Speed Gust Speed Precip Events Conditions
12:15 AM 57.2 °F 53.6 °F 88% 30.03 in 10.0 mi Calm Calm - N/A   Clear
12:55 AM 57.2 °F 51.8 °F 82% 30.03 in 10.0 mi Calm Calm - N/A   Clear
1:15 AM 55.4 °F 53.6 °F 94% 30.04 in 10.0 mi Calm Calm - N/A   Clear
1:56 AM 57.2 °F 53.6 °F 88% 30.04 in 10.0 mi Calm Calm - N/A   Clear
2:16 AM 55.4 °F 53.6 °F 94% 30.04 in 10.0 mi Calm Calm - N/A   Clear
2:57 AM 57.2 °F 55.4 °F 94% 30.04 in 10.0 mi Calm Calm - N/A   Overcast
4:15 AM 59.0 °F 55.4 °F 88% 30.03 in 10.0 mi North 3.5 mph - N/A   Overcast
4:56 AM 59.0 °F 53.6 °F 82% 30.05 in 10.0 mi Calm Calm - N/A   Overcast
5:15 AM 59.0 °F 53.6 °F 82% 30.05 in 10.0 mi Calm Calm - N/A   Overcast
6:35 AM 57.2 °F 53.6 °F 88% 30.07 in 10.0 mi NNE 3.5 mph - N/A   Overcast
6:55 AM 59.0 °F 53.6 °F 82% 30.07 in 10.0 mi Calm Calm - N/A   Overcast
7:16 AM 59.0 °F 55.4 °F 88% 30.07 in 10.0 mi North 3.5 mph - N/A   Overcast
7:55 AM 60.8 °F 55.4 °F 82% 30.07 in 10.0 mi Calm Calm - N/A   Mostly Cloudy
9:15 AM 62.6 °F 55.4 °F 77% 30.08 in 10.0 mi North 4.6 mph - N/A   Clear
9:36 AM 64.4 °F 55.4 °F 73% 30.07 in 10.0 mi NNE 4.6 mph - N/A   Clear
9:57 AM 66.2 °F 55.4 °F 68% 30.07 in 10.0 mi Calm Calm - N/A   Scattered Clouds
10:18 AM 68.0 °F 55.4 °F 64% 30.07 in 10.0 mi North 3.5 mph - N/A   Scattered Clouds
11:37 AM 71.6 °F 62.6 °F 73% 30.08 in 10.0 mi NW 4.6 mph - N/A   Overcast
11:57 AM 71.6 °F 60.8 °F 69% 30.07 in 10.0 mi NW 4.6 mph - N/A   Mostly Cloudy
12:37 PM 73.4 °F 62.6 °F 69% 30.05 in 10.0 mi NW 8.1 mph - N/A   Clear
12:56 PM 75.2 °F 60.8 °F 61% 30.05 in 10.0 mi NW 6.9 mph - N/A   Clear
1:16 PM 75.2 °F 60.8 °F 61% 30.04 in 10.0 mi NW 6.9 mph - N/A   Clear
1:36 PM 75.2 °F 59.0 °F 57% 30.03 in 10.0 mi North 10.4 mph - N/A   Clear
1:58 PM 77.0 °F 59.0 °F 54% 30.03 in 10.0 mi NNW 9.2 mph - N/A   Clear
2:15 PM 77.0 °F 57.2 °F 50% 30.02 in 10.0 mi NW 6.9 mph - N/A   Clear
3:35 PM 75.2 °F 55.4 °F 50% 30.01 in 10.0 mi NNW 5.8 mph - N/A   Clear
4:15 PM 75.2 °F 55.4 °F 50% 30.01 in 10.0 mi NNW 5.8 mph - N/A   Clear
4:37 PM 75.2 °F 55.4 °F 50% 30.01 in 10.0 mi North 5.8 mph - N/A   Mostly Cloudy
5:15 PM 75.2 °F 55.4 °F 50% 30.01 in 10.0 mi North 5.8 mph - N/A   Mostly Cloudy
6:35 PM 69.8 °F 59.0 °F 68% 30.02 in 10.0 mi NNW 3.5 mph - N/A   Clear
6:55 PM 69.8 °F 59.0 °F 68% 30.02 in 10.0 mi NNW 3.5 mph - N/A   Clear
7:15 PM 69.8 °F 57.2 °F 64% 30.03 in 10.0 mi North 4.6 mph - N/A   Clear
7:35 PM 66.2 °F 57.2 °F 73% 30.03 in 10.0 mi North 3.5 mph - N/A   Scattered Clouds
7:55 PM 66.2 °F 57.2 °F 73% 30.04 in 10.0 mi North 3.5 mph - N/A   Scattered Clouds
8:15 PM 66.2 °F 57.2 °F 73% 30.05 in 10.0 mi North 4.6 mph - N/A   Scattered Clouds
8:56 PM 66.2 °F 57.2 °F 73% 30.04 in 10.0 mi NE 3.5 mph - N/A   Clear
9:15 PM 66.2 °F 55.4 °F 68% 30.05 in 10.0 mi NE 3.5 mph - N/A   Clear
9:35 PM 66.2 °F 55.4 °F 68% 30.06 in 10.0 mi NNE 5.8 mph - N/A   Scattered Clouds
10:15 PM 64.4 °F 55.4 °F 73% 30.06 in 10.0 mi ENE 4.6 mph - N/A   Clear
10:56 PM 64.4 °F 55.4 °F 73% 30.05 in 10.0 mi East 3.5 mph - N/A   Clear
11:15 PM 64.4 °F 55.4 °F 73% 30.06 in 10.0 mi ENE 3.5 mph - N/A   Clear
11:36 PM 64.4 °F 55.4 °F 73% 30.05 in 10.0 mi East 4.6 mph - N/A   Clear
11:55 PM 64.4 °F 55.4 °F 73% 30.05 in 10.0 mi East 8.1 mph - N/A   Clear